Location: Pasadena-CA
(34.1440°N, 118.1100°W)
Time: 06:16:55
(UTC-07:00)

Envisat - Visible Passes

Search period start: 23 September 2023 00:00
Search period end: 03 October 2023 00:00
Orbit: 763 x 764 km, 98.2° (Epoch: 22 September)

Date Brightness Start Highest point End Pass type
(mag) Time Alt. Az. Time Alt. Az. Time Alt. Az.
23 Sep 4.5 03:48:44 10° NE 03:53:07 32° E 03:53:07 32° E visible
23 Sep 4.1 05:27:58 10° NNW 05:32:01 25° WNW 05:33:17 22° W visible
24 Sep 5.7 03:13:32 10° ENE 03:15:22 13° E 03:15:22 13° E visible
24 Sep 3.0 04:50:05 10° N 04:55:04 58° WNW 04:55:32 55° W visible
25 Sep 3.4 04:12:54 10° NNE 04:17:47 58° E 04:17:47 58° E visible
25 Sep 4.7 05:53:45 10° NW 05:56:21 14° WNW 05:57:56 12° W visible
26 Sep 5.0 03:36:32 10° NE 03:40:02 23° E 03:40:02 23° E visible
26 Sep 3.7 05:15:02 10° N 05:19:31 32° WNW 05:20:11 31° W visible
27 Sep 2.8 04:37:25 10° N 04:42:26 78° WNW 04:42:26 78° WNW visible
28 Sep 4.1 04:00:28 10° NNE 04:04:41 41° E 04:04:41 41° E visible
28 Sep 4.3 05:40:26 10° NNW 05:43:53 19° WNW 05:44:51 18° W visible
29 Sep 5.5 03:24:30 10° NE 03:26:56 17° E 03:26:56 17° E visible
29 Sep 3.3 05:02:13 10° N 05:07:00 43° WNW 05:07:05 43° WNW visible
30 Sep 3.2 04:24:49 10° NNE 04:29:20 68° NE 04:29:20 68° NE visible
30 Sep 4.9 06:07:22 10° NW 06:08:09 10° WNW 06:08:57 10° WNW visible
01 Oct 4.7 03:48:07 10° NE 03:51:33 29° ENE 03:51:33 29° ENE visible
01 Oct 4.0 05:27:21 10° NNW 05:31:24 25° WNW 05:31:44 24° WNW visible
02 Oct 5.9 03:12:53 10° ENE 03:13:48 12° ENE 03:13:48 12° ENE visible
02 Oct 3.1 04:49:27 10° N 04:53:58 55° NW 04:53:58 55° NW visible
